TimeCDT,TemperatureF,Dew PointF,Humidity,Sea Level PressureIn,VisibilityMPH,Wind Direction,Wind SpeedMPH,Gust SpeedMPH,PrecipitationIn,Events,Conditions,WindDirDegrees,DateUTC
12:15 AM,59.9,46.8,62,30.03,7.0,NNE,17.3,20.7,N/A,,Overcast,20,2013-04-24 05:15:00
12:35 AM,59.4,46.8,63,30.04,10.0,NNE,13.8,20.7,N/A,,Overcast,30,2013-04-24 05:35:00
12:55 AM,59.0,46.4,63,30.04,10.0,NNE,17.3,24.2,N/A,,Overcast,20,2013-04-24 05:55:00
1:15 AM,58.5,45.7,62,30.06,10.0,NNE,12.7,23.0,N/A,,Overcast,20,2013-04-24 06:15:00
1:35 AM,57.4,45.5,65,30.06,10.0,North,16.1,23.0,N/A,Rain,Light Rain,10,2013-04-24 06:35:00
1:55 AM,56.3,44.6,65,30.06,10.0,NNE,13.8,25.3,N/A,Rain,Rain,20,2013-04-24 06:55:00
2:35 AM,54.5,43.3,66,30.07,10.0,NNE,17.3,28.8,N/A,Rain,Heavy Rain,20,2013-04-24 07:35:00
2:55 AM,53.2,43.7,70,30.08,10.0,NNE,10.4,21.9,N/A,Rain,Heavy Rain,20,2013-04-24 07:55:00
3:15 AM,52.7,43.0,70,30.08,7.0,NNE,13.8,21.9,N/A,Rain,Heavy Rain,20,2013-04-24 08:15:00
3:35 AM,52.7,42.8,69,30.09,10.0,NNE,13.8,23.0,N/A,Rain,Heavy Rain,20,2013-04-24 08:35:00
3:55 AM,52.3,42.8,70,30.10,10.0,North,10.4,18.4,N/A,Rain,Light Rain,10,2013-04-24 08:55:00
4:15 AM,50.2,43.5,78,30.11,7.0,NNE,17.3,24.2,0.01,Rain,Light Rain,20,2013-04-24 09:15:00
4:35 AM,49.5,43.9,81,30.12,10.0,North,11.5,19.6,0.02,Rain,Heavy Rain,10,2013-04-24 09:35:00
4:55 AM,49.1,43.7,82,30.12,7.0,North,12.7,23.0,0.02,Rain,Heavy Rain,10,2013-04-24 09:55:00
5:15 AM,48.7,43.7,83,30.14,10.0,North,11.5,18.4,N/A,Rain,Heavy Rain,10,2013-04-24 10:15:00
5:35 AM,48.4,43.7,84,30.14,7.0,North,10.4,19.6,N/A,Rain,Heavy Rain,10,2013-04-24 10:35:00
5:55 AM,48.4,41.9,78,30.14,7.0,North,13.8,21.9,N/A,Rain,Heavy Rain,10,2013-04-24 10:55:00
6:15 AM,48.4,41.0,76,30.13,7.0,NNE,11.5,18.4,N/A,Rain,Heavy Rain,20,2013-04-24 11:15:00
6:35 AM,48.4,41.4,77,30.14,7.0,North,9.2,-,N/A,Rain,Heavy Rain,10,2013-04-24 11:35:00
6:55 AM,49.1,41.5,75,30.16,7.0,North,8.1,-,N/A,Rain,Heavy Rain,10,2013-04-24 11:55:00
7:15 AM,49.1,40.8,73,30.18,5.0,North,11.5,20.7,N/A,Rain-Thunderstorm,Heavy Thunderstorms and Rain,10,2013-04-24 12:15:00
7:35 AM,49.5,40.6,72,30.19,5.0,North,10.4,16.1,N/A,Rain,Heavy Rain,360,2013-04-24 12:35:00
7:55 AM,49.6,39.9,69,30.20,5.0,North,11.5,16.1,N/A,Rain,Heavy Rain,10,2013-04-24 12:55:00
8:15 AM,49.8,39.6,68,30.21,5.0,North,8.1,16.1,N/A,Rain,Heavy Rain,10,2013-04-24 13:15:00
8:35 AM,50.0,39.4,67,30.21,7.0,North,12.7,19.6,N/A,Rain,Heavy Rain,360,2013-04-24 13:35:00
8:55 AM,50.0,39.0,66,30.20,7.0,North,9.2,19.6,N/A,Rain,Heavy Rain,360,2013-04-24 13:55:00
9:15 AM,50.4,38.5,64,30.21,7.0,North,15.0,19.6,N/A,Rain,Heavy Rain,360,2013-04-24 14:15:00
9:35 AM,51.1,38.7,63,30.21,7.0,North,10.4,17.3,N/A,Rain-Thunderstorm,Heavy Thunderstorms and Rain,10,2013-04-24 14:35:00
9:55 AM,51.3,38.1,61,30.22,10.0,NNE,12.7,17.3,N/A,Rain,Heavy Rain,20,2013-04-24 14:55:00
10:15 AM,51.8,38.3,60,30.21,7.0,North,10.4,17.3,N/A,Rain,Heavy Rain,360,2013-04-24 15:15:00
10:35 AM,52.7,37.9,57,30.21,5.0,North,11.5,16.1,N/A,Rain,Heavy Rain,10,2013-04-24 15:35:00
10:55 AM,53.1,36.9,54,30.21,7.0,North,10.4,21.9,N/A,Rain,Heavy Rain,10,2013-04-24 15:55:00
11:15 AM,53.6,37.0,53,30.22,7.0,North,13.8,20.7,N/A,Rain,Heavy Rain,10,2013-04-24 16:15:00
11:35 AM,52.7,36.1,53,30.23,7.0,North,12.7,20.7,N/A,Rain,Heavy Rain,10,2013-04-24 16:35:00
11:55 AM,53.6,36.7,53,30.23,7.0,North,12.7,17.3,N/A,Rain,Heavy Rain,360,2013-04-24 16:55:00
12:15 PM,54.1,36.1,51,30.23,7.0,North,10.4,19.6,N/A,Rain,Heavy Rain,10,2013-04-24 17:15:00
12:35 PM,55.9,36.3,48,30.23,7.0,North,13.8,18.4,N/A,Rain,Heavy Rain,350,2013-04-24 17:35:00
12:55 PM,55.9,36.1,47,30.23,7.0,North,9.2,16.1,N/A,Rain,Heavy Rain,350,2013-04-24 17:55:00
1:15 PM,57.4,36.1,45,30.22,10.0,North,11.5,19.6,N/A,Rain,Heavy Rain,360,2013-04-24 18:15:00
1:55 PM,59.9,36.3,41,30.21,10.0,North,6.9,16.1,N/A,Rain,Heavy Rain,10,2013-04-24 18:55:00
2:15 PM,61.0,36.0,39,30.20,7.0,North,9.2,16.1,N/A,Rain,Heavy Rain,360,2013-04-24 19:15:00
2:35 PM,63.0,36.3,37,30.19,-9999.0,NNE,10.4,-,N/A,,Unknown,30,2013-04-24 19:35:00
2:55 PM,63.7,36.0,36,30.19,7.0,NNE,10.4,-,N/A,Rain,Heavy Rain,20,2013-04-24 19:55:00
3:15 PM,63.7,36.3,36,30.19,5.0,NNE,11.5,-,N/A,Rain,Heavy Rain,30,2013-04-24 20:15:00
3:35 PM,62.8,35.4,36,30.19,10.0,North,8.1,16.1,N/A,Rain,Heavy Rain,350,2013-04-24 20:35:00
3:55 PM,64.2,36.0,35,30.18,7.0,North,11.5,17.3,N/A,Rain,Heavy Rain,350,2013-04-24 20:55:00
4:15 PM,64.4,36.1,35,30.17,10.0,NNE,9.2,19.6,N/A,Rain,Heavy Rain,20,2013-04-24 21:15:00
4:35 PM,64.6,36.0,35,30.17,10.0,North,11.5,17.3,N/A,Rain,Heavy Rain,360,2013-04-24 21:35:00
4:55 PM,63.9,35.8,35,30.16,7.0,NNE,9.2,-,N/A,Rain,Heavy Rain,20,2013-04-24 21:55:00
5:15 PM,63.5,35.8,36,30.17,7.0,NNE,8.1,-,N/A,Rain,Heavy Rain,20,2013-04-24 22:15:00
5:55 PM,63.5,35.6,35,30.16,10.0,NNE,8.1,-,N/A,Rain,Heavy Rain,30,2013-04-24 22:55:00
6:15 PM,63.5,35.6,35,30.16,10.0,NNE,8.1,-,N/A,Rain,Heavy Rain,20,2013-04-24 23:15:00
6:35 PM,63.5,36.0,36,30.16,10.0,NNE,8.1,-,N/A,Rain,Heavy Rain,20,2013-04-24 23:35:00
6:55 PM,63.3,35.8,36,30.16,10.0,NNE,9.2,-,N/A,Rain,Heavy Rain,20,2013-04-24 23:55:00
7:15 PM,63.1,35.6,36,30.16,7.0,NNE,6.9,-,N/A,Rain,Heavy Rain,30,2013-04-25 00:15:00
7:35 PM,62.8,35.6,36,30.16,10.0,NNE,9.2,-,N/A,Rain,Heavy Rain,30,2013-04-25 00:35:00
7:55 PM,62.6,35.6,37,30.17,10.0,NNE,6.9,-,N/A,Rain,Heavy Rain,30,2013-04-25 00:55:00
8:15 PM,62.2,35.6,37,30.18,7.0,NNE,6.9,-,N/A,Rain,Heavy Rain,30,2013-04-25 01:15:00
8:35 PM,62.2,36.3,38,30.19,7.0,NNE,5.8,-,N/A,Rain,Heavy Rain,30,2013-04-25 01:35:00
8:55 PM,62.1,36.5,39,30.19,5.0,NNE,8.1,-,N/A,Rain,Heavy Rain,30,2013-04-25 01:55:00
10:15 PM,61.7,37.0,40,30.23,7.0,NNE,5.8,-,N/A,Rain,Heavy Rain,30,2013-04-25 03:15:00
10:35 PM,61.5,37.0,40,30.24,10.0,NNE,4.6,-,N/A,Rain,Heavy Rain,20,2013-04-25 03:35:00
10:55 PM,61.2,37.6,42,30.24,7.0,NNE,9.2,-,N/A,Rain,Heavy Rain,30,2013-04-25 03:55:00
11:15 PM,61.2,37.6,42,30.24,10.0,NNE,6.9,-,N/A,Rain,Heavy Rain,20,2013-04-25 04:15:00
11:35 PM,61.2,37.8,42,30.25,10.0,NNE,8.1,-,N/A,Rain,Heavy Rain,20,2013-04-25 04:35:00
11:55 PM,61.0,38.1,43,30.24,7.0,NNE,8.1,-,N/A,Rain,Heavy Rain,30,2013-04-25 04:55:00